Location: ????????
(55.5667°N, 37.5833°E)
Time: 10:46:46
(UTC+00:00)

Cosmos 1867 - Pass Details

Date: 14 April 2026
Orbit: 775 x 798 km, 65.0° (Epoch: 10 May)

Event Time Altitude Azimuth Distance (km) Brightness Sun altitude
Exits shadow 23:44:20 33° 190° (S) 1,319 4.2 -19.0°
Maximum altitude 23:46:36 56° 128° (SE) 940 3.9 -18.8°
Drops below altitude 10° 23:51:56 10° 51° (NE) 2,378 7.2 -18.3°
Sets 23:54:25 0° 48° (NE) 3,313 8.4 -18.1°
